Location: M�nchen
(48.1404°N, 11.6043°E)
Time: 20:11:13
(UTC+01:00)

N. Korean satellite - Visible Passes

Search period start: 20 November 2017 00:00
Search period end: 30 November 2017 00:00
Orbit: 460 x 514 km, 97.2° (Epoch: 20 November)

Date Brightness Start Highest point End Pass type
(mag) Time Alt. Az. Time Alt. Az. Time Alt. Az.
20 Nov 6.7 17:45:01 10° SSE 17:48:24 47° ENE 17:51:52 10° N visible
20 Nov 9.9 19:20:28 10° WSW 19:22:14 13° W 19:24:01 10° WNW visible
21 Nov 8.3 06:41:58 10° NNE 06:45:31 40° E 06:49:05 10° S visible
21 Nov 7.5 17:22:03 10° SE 17:25:02 26° ENE 17:28:05 10° N visible
21 Nov 9.0 18:55:39 10° SSW 18:58:33 24° W 19:01:30 10° NW visible
22 Nov 9.5 06:18:54 10° NE 06:21:55 22° E 06:24:55 10° SSE visible
22 Nov 8.2 16:59:35 10° E 17:01:46 16° ENE 17:03:58 10° NNE visible
22 Nov 7.7 18:31:33 10° S 18:34:56 44° W 18:38:25 10° NNW visible
23 Nov 10.1 05:56:28 10° ENE 05:58:15 13° E 06:00:02 10° ESE visible
23 Nov 6.5 18:07:52 10° SSE 18:11:25 87° WSW 18:15:02 10° NNW visible
24 Nov 6.7 17:44:33 10° SSE 17:47:58 48° ENE 17:51:29 10° N visible
24 Nov 9.8 19:19:57 10° WSW 19:21:48 13° W 19:23:40 10° WNW visible
25 Nov 8.3 06:41:32 10° NNE 06:45:07 40° E 06:48:41 10° S visible
25 Nov 7.5 17:21:35 10° SE 17:24:36 26° ENE 17:27:41 10° N visible
25 Nov 9.0 18:55:10 10° SSW 18:58:06 24° W 19:01:06 10° NW visible
26 Nov 9.4 06:18:29 10° NE 06:21:30 23° E 06:24:31 10° SSE visible
26 Nov 8.2 16:59:05 10° ESE 17:01:18 16° ENE 17:03:34 10° NNE visible
26 Nov 7.7 18:31:04 10° S 18:34:28 44° W 18:37:59 10° NNW visible
27 Nov 10.0 05:56:01 10° ENE 05:57:48 13° E 05:59:36 10° ESE visible
27 Nov 6.5 18:07:23 10° SSE 18:10:57 88° W 18:14:37 10° NNW visible
28 Nov 6.7 17:44:02 10° SSE 17:47:29 48° ENE 17:51:02 10° N visible
28 Nov 9.8 19:19:23 10° WSW 19:21:18 14° W 19:23:15 10° WNW visible
29 Nov 8.3 06:41:04 10° NNE 06:44:40 40° E 06:48:13 10° S visible
29 Nov 7.5 17:21:03 10° SE 17:24:06 27° ENE 17:27:14 10° N visible
29 Nov 8.9 18:54:36 10° SSW 18:57:36 24° W 19:00:40 10° NW visible
